KQ5S-13 Weather Reports


time (UTC)temp
F
wind
direction
speed
knots
gust
knots
rain 1hr
in
rain 24hr
in
rain mn
in
humidity
%
barometer
mb
20260906134517 79 45 1.7 4.3 0.00 0.00 0.00 83 1013.5
20260906133517 78 45 1.7 3.5 0.00 0.00 0.00 85 1013.6
20260906132539 77 45 1.7 3.5 0.00 0.00 0.00 86 1013.6
20260906131516 77 0 1.7 3.5 0.00 0.00 0.00 86 1013.5
20260906130516 77 45 1.7 3.5 0.00 0.00 0.00 87 1013.7
20260906125516 77 45 1.7 4.3 0.00 0.00 0.00 87 1013.7
20260906124516 76 45 1.7 3.5 0.00 0.00 0.00 88 1013.8
20260906123516 75 45 0.9 2.6 0.00 0.00 0.00 90 1013.7
20260906122516 75 0 0.9 2.6 0.00 0.00 0.00 91 1013.8
20260906121516 75 90 1.7 3.5 0.00 0.00 0.00 91 1013.7
20260906120516 74 0 1.7 3.5 0.00 0.00 0.00 91 1013.8
20260906115516 74 45 1.7 3.5 0.00 0.00 0.00 92 1013.6
20260906114516 74 68 1.7 4.3 0.00 0.00 0.00 92 1013.6
20260906113516 74 338 0.9 1.7 0.00 0.00 0.00 92 1013.5
20260906112516 74 68 0.9 1.7 0.00 0.00 0.00 92 1013.2
20260906111516 74 0.0 1.7 0.00 0.00 0.00 92 1013.0
20260906110516 74 0.0 0.0 0.00 0.00 0.00 91 1013.2
20260906105516 74 0.0 0.0 0.00 0.00 0.00 91 1013.4
20260906104516 75 0.0 0.0 0.00 0.00 0.00 91 1013.4
20260906103516 75 113 0.9 1.7 0.00 0.00 0.00 91 1013.5
20260906102516 75 0.0 0.9 0.00 0.00 0.00 90 1013.5
20260906101515 75 0.0 2.6 0.00 0.00 0.00 89 1013.6
20260906100516 75 0.0 0.0 0.00 0.00 0.00 88 1013.4
20260906095516 75 0.0 0.0 0.00 0.00 0.00 88 1013.4
20260906094515 75 0.0 0.0 0.00 0.00 0.00 87 1012.8
20260906093516 76 158 1.7 3.5 0.00 0.00 0.00 87 1012.4
20260906092516 76 0.0 0.0 0.00 0.00 0.00 86 1012.7
20260906091516 76 0.0 0.0 0.00 0.00 0.00 86 1012.7
20260906090516 76 0 0.9 2.6 0.00 0.00 0.00 86 1013.0
20260906085516 76 23 1.7 4.3 0.00 0.00 0.00 87 1013.2
20260906084516 76 45 2.6 7.8 0.00 0.00 0.00 90 1013.6
20260906083516 76 0 1.7 4.3 0.00 0.00 0.00 91 1013.8
20260906082536 76 315 0.9 2.6 0.00 0.00 0.00 91 1013.6
20260906081516 76 0 0.9 3.5 0.00 0.00 0.00 91 1013.4
20260906080516 76 0.0 0.0 0.00 0.00 0.00 90 1013.2
20260906075515 76 0.0 1.7 0.00 0.00 0.00 90 1013.3
20260906074536 76 68 0.9 1.7 0.00 0.00 0.00 90 1013.5
20260906073515 76 0.0 0.9 0.00 0.00 0.00 90 1013.4
20260906072535 76 293 0.9 1.7 0.00 0.00 0.00 90 1013.2
20260906071515 76 0.0 1.7 0.00 0.00 0.00 90 1013.2
20260906070516 76 315 0.9 3.5 0.00 0.00 0.00 90 1013.1
20260906065515 76 293 0.9 2.6 0.00 0.00 0.00 90 1013.0
20260906064515 75 0.0 3.5 0.00 0.00 0.00 89 1012.9
20260906063515 75 0.0 0.0 0.00 0.00 0.00 88 1013.0
20260906062515 76 0.0 0.9 0.00 0.00 0.00 87 1013.1
20260906061516 76 0.0 0.0 0.00 0.00 0.00 87 1013.3
20260906060515 76 180 0.9 2.6 0.00 0.00 0.00 86 1013.3
20260906055516 76 0.0 0.9 0.00 0.00 0.00 86 1013.4
20260906054515 76 0.0 2.6 0.00 0.00 0.00 85 1013.4
20260906053517 77 270 0.9 2.6 0.00 0.00 0.00 85 1013.2
20260906052558 77 158 0.9 1.7 0.00 0.00 0.00 84 1013.4
20260906051517 77 0.0 0.9 0.00 0.00 0.00 83 1013.4
20260906050518 77 0.0 1.7 0.00 0.00 0.00 83 1013.5
20260906045516 78 0 0.9 1.7 0.00 0.00 0.00 82 1013.6
20260906044516 78 0 0.9 1.7 0.00 0.00 0.00 81 1013.6
20260906043516 78 0.0 0.0 0.00 0.00 0.00 80 1013.6
20260906042516 79 0.0 0.9 0.00 0.00 0.00 80 1013.6
20260906041516 79 0.0 1.7 0.00 0.00 0.00 79 1013.6
20260906040536 80 0.0 1.7 0.00 0.00 0.00 78 1013.8
20260906035516 80 0.0 1.7 0.00 0.00 0.00 77 1013.7
20260906034516 80 0.0 0.0 0.00 0.00 0.00 76 1013.6
20260906033516 80 0.0 0.0 0.00 0.00 0.00 76 1013.6
20260906032516 81 0.0 0.0 0.00 0.00 0.00 74 1013.6
20260906031516 82 0.0 0.0 0.00 0.00 0.00 74 1013.5
20260906030536 82 0.0 0.0 0.00 0.00 0.00 72 1013.4
20260906025516 82 0.0 0.0 0.00 0.00 0.00 71 1013.4
20260906024535 82 90 0.9 1.7 0.00 0.00 0.00 71 1013.3
20260906023516 82 90 0.9 2.6 0.00 0.00 0.00 70 1013.2
20260906022516 82 90 0.9 1.7 0.00 0.00 0.00 69 1013.1
20260906021536 83 68 1.7 3.5 0.00 0.00 0.00 68 1013.1
20260906020515 83 68 1.7 3.5 0.00 0.00 0.00 67 1013.1
20260906015536 83 68 2.6 3.5 0.00 0.00 0.00 66 1012.9
20260906014535 83 68 1.7 2.6 0.00 0.00 0.00 66 1012.9
20260906013516 83 45 1.7 3.5 0.00 0.00 0.00 68 1012.9
20260906012515 83 68 1.7 4.3 0.00 0.00 0.00 68 1012.4
20260906011515 84 45 1.7 3.5 0.00 0.00 0.00 72 1012.1
20260906010516 84 45 0.9 2.6 0.00 0.00 0.00 71 1011.7
20260906005515 85 90 1.7 3.5 0.00 0.00 0.00 72 1011.1
20260906004515 86 0.0 0.0 0.00 0.00 0.00 69 1011.1
20260906003518 86 0 0.9 1.7 0.00 0.00 0.00 68 1011.2
20260906002535 87 68 0.9 1.7 0.00 0.00 0.00 66 1011.3
20260906001515 87 90 0.9 2.6 0.00 0.00 0.00 66 1011.7
20260906000515 88 90 0.9 2.6 0.00 0.00 0.00 65 1011.6
20260905235535 88 68 1.7 3.5 0.00 0.00 0.00 64 1011.7
20260905234515 88 90 1.7 3.5 0.00 0.00 0.00 63 1011.7
20260905233516 89 90 3.5 7.0 0.00 0.00 0.00 62 1011.9
20260905232515 90 90 1.7 2.6 0.00 0.00 0.00 64 1011.9
20260905231515 91 315 0.9 2.6 0.00 0.00 0.00 61 1011.6
20260905230516 91 0 0.9 2.6 0.00 0.00 0.00 60 1011.3
20260905225515 92 0 1.7 6.1 0.00 0.00 0.00 58 1011.3
20260905224535 93 68 2.6 7.0 0.00 0.00 0.00 57 1011.5
20260905223518 94 338 1.7 7.8 0.00 0.00 0.00 56 1011.6
20260905222537 95 270 0.9 2.6 0.00 0.00 0.00 55 1011.6
20260905221517 95 248 1.7 3.5 0.00 0.00 0.00 55 1011.6
20260905220517 95 293 0.9 3.5 0.00 0.00 0.00 55 1011.7
20260905215517 95 293 1.7 2.6 0.00 0.00 0.00 55 1011.7
20260905214518 95 293 1.7 3.5 0.00 0.00 0.00 53 1011.8
20260905213537 95 270 0.9 3.5 0.00 0.00 0.00 54 1011.8
20260905212517 95 45 0.9 3.5 0.00 0.00 0.00 54 1011.8
20260905211537 94 270 0.9 2.6 0.00 0.00 0.00 54 1011.7
20260905210517 94 270 1.7 3.5 0.00 0.00 0.00 54 1011.8
20260905205517 94 68 1.7 5.2 0.00 0.00 0.00 54 1011.8
20260905204537 94 338 1.7 7.0 0.00 0.00 0.00 52 1011.9
20260905203517 94 270 1.7 3.5 0.00 0.00 0.00 56 1012.1
20260905202537 94 315 1.7 6.1 0.00 0.00 0.00 54 1012.2
20260905201517 94 270 1.7 3.5 0.00 0.00 0.00 54 1012.3
20260905200537 94 338 1.7 3.5 0.00 0.00 0.00 54 1012.5
20260905195517 94 68 2.6 7.0 0.00 0.00 0.00 55 1012.6
20260905194517 94 315 1.7 5.2 0.00 0.00 0.00 56 1012.7
20260905193517 94 315 1.7 4.3 0.00 0.00 0.00 56 1012.7
20260905192517 94 338 1.7 4.3 0.00 0.00 0.00 55 1013.0
20260905191537 93 293 1.7 6.1 0.00 0.00 0.00 57 1013.1
20260905190517 93 45 2.6 7.0 0.00 0.00 0.00 54 1013.2
20260905185517 93 248 1.7 6.1 0.00 0.00 0.00 56 1013.4
20260905184517 93 338 2.6 10.4 0.00 0.00 0.00 55 1013.5
20260905183537 93 315 1.7 3.5 0.00 0.00 0.00 56 1013.6
20260905182517 93 270 1.7 5.2 0.00 0.00 0.00 57 1013.8
20260905181517 93 315 1.7 3.5 0.00 0.00 0.00 58 1014.0
20260905180517 93 315 2.6 5.2 0.00 0.00 0.00 57 1014.1
20260905175537 93 315 2.6 7.0 0.00 0.00 0.00 58 1014.3
20260905174517 92 270 2.6 4.3 0.00 0.00 0.00 59 1014.3
20260905173517 92 293 1.7 3.5 0.00 0.00 0.00 60 1014.3
20260905172517 92 315 1.7 4.3 0.00 0.00 0.00 60 1014.5
20260905171517 92 338 1.7 4.3 0.00 0.00 0.00 59 1014.6
20260905170557 93 338 1.7 4.3 0.00 0.00 0.00 59 1014.7
20260905165517 93 338 1.7 3.5 0.00 0.00 0.00 60 1014.8
20260905164517 93 248 1.7 4.3 0.00 0.00 0.00 63 1015.0
20260905163516 94 338 1.7 5.2 0.00 0.00 0.00 61 1015.0
20260905162537 94 0 1.7 3.5 0.00 0.00 0.00 62 1015.2
20260905161516 93 338 2.6 5.2 0.00 0.00 0.00 66 1015.4
20260905160516 93 45 1.7 4.3 0.00 0.00 0.00 64 1015.4
20260905155517 93 315 1.7 3.5 0.00 0.00 0.00 62 1015.4
20260905154516 92 315 2.6 7.0 0.00 0.00 0.00 66 1015.5
20260905153517 92 338 1.7 6.1 0.00 0.00 0.00 68 1015.5
20260905152516 91 68 1.7 5.2 0.00 0.00 0.00 67 1015.5
20260905151517 91 68 1.7 3.5 0.00 0.00 0.00 67 1015.4
20260905150517 91 68 1.7 3.5 0.00 0.00 0.00 70 1015.5
20260905145516 90 338 1.7 3.5 0.00 0.00 0.00 72 1015.5
20260905144516 88 68 3.5 7.8 0.00 0.00 0.00 75 1015.5
20260905143516 87 68 0.9 4.3 0.00 0.00 0.00 78 1015.6
20260905142517 85 315 0.9 3.5 0.00 0.00 0.00 80 1015.6
20260905141516 84 315 0.9 3.5 0.00 0.00 0.00 83 1015.5
20260905140516 82 270 0.9 1.7 0.00 0.00 0.00 86 1015.5
20260905135536 81 338 1.7 3.5 0.00 0.00 0.00 87 1015.5